Date String (YYYY-MM-DD hh:mm:ss) UTC,Instrument flags,Ambient pressure (hPa),Sample flow (lpm),Bypass flow (lpm),Sample temperature (°C),Ambient temperature (°C),ASC tube jacket temperature (°C),LED temperature (°C),Box temperature (°C),Sample RH (%),Span deviation,Mass concentration (μg/m³),Mass concentration (μg/m³),Mass concentration (μg/m³)
DateTimeUTC,F1_M11,P_M11,Q1_M11,Q2_M11,T1_M11,T2_M11,T3_M11,T4_M11,T5_M11,U1_M11,ZSPAN_M11,X2_M11,X0_M11,X1_M11
2023-01-11 22:00:00,,0821.7,5.00,0.00,22.3,20.6,00.0,31.3,24.0,21.4,0000.0,0006.18,0007.61,0006.12
2023-01-11 22:01:00,,0821.7,4.99,0.00,22.3,20.6,00.0,31.2,23.9,21.4,0000.0,0006.13,0007.63,0006.07
2023-01-11 22:02:00,,0821.7,5.00,0.00,22.2,20.5,00.0,31.2,23.9,21.5,0000.0,0006.08,0007.60,0006.02
2023-01-11 22:03:00,,0821.8,5.00,0.00,22.2,20.5,00.0,31.2,23.8,21.5,0000.0,0006.04,0007.56,0005.97
2023-01-11 22:04:00,,0821.8,5.00,0.00,22.2,20.4,00.0,31.2,23.8,21.5,0000.0,0006.03,0007.55,0005.95
2023-01-11 22:05:00,,0821.8,5.02,0.00,22.2,20.4,00.0,31.2,23.8,21.6,0000.8,0006.01,0007.52,0005.94
2023-01-11 22:06:00,,0821.8,4.99,0.00,22.1,20.4,00.0,31.2,23.8,21.7,0000.0,0005.96,0007.46,0005.90
2023-01-11 22:07:00,,0821.9,4.99,0.00,22.1,20.4,00.0,31.2,23.8,21.7,0000.0,0005.91,0007.42,0005.85
2023-01-11 22:08:00,,0822.1,5.00,0.00,22.1,20.4,00.0,31.1,23.7,21.6,0000.0,0005.85,0007.37,0005.78
2023-01-11 22:09:00,,0822.2,4.99,0.00,22.1,20.3,00.0,31.1,23.7,21.7,0000.0,0005.78,0007.25,0005.72
2023-01-11 22:10:00,,0822.2,5.00,0.00,22.0,20.3,00.0,31.1,23.7,21.7,0000.0,0005.73,0007.13,0005.67
2023-01-11 22:11:00,,0822.0,4.99,0.00,22.0,20.3,00.0,31.1,23.6,21.7,0000.7,0005.69,0007.03,0005.62
2023-01-11 22:12:00,,0821.9,5.02,0.00,22.0,20.3,00.0,31.1,23.6,21.7,0000.1,0005.64,0006.86,0005.56
2023-01-11 22:13:00,,0822.0,5.00,0.00,22.0,20.3,00.0,31.0,23.6,21.8,0000.0,0005.59,0006.78,0005.51
2023-01-11 22:14:00,,0822.1,5.00,0.00,22.0,20.3,00.0,31.0,23.6,21.8,0000.0,0005.53,0006.66,0005.46
2023-01-11 22:15:00,,0822.1,5.00,0.00,22.0,20.2,00.0,31.0,23.6,21.8,0000.0,0005.47,0006.57,0005.39
2023-01-11 22:16:00,,0822.1,4.99,0.00,21.9,20.2,00.0,31.0,23.6,21.8,0000.0,0005.41,0006.50,0005.33
2023-01-11 22:17:00,,0822.1,5.00,0.00,21.9,20.3,00.0,31.0,23.6,21.8,0000.0,0005.35,0006.38,0005.28
2023-01-11 22:18:00,,0822.2,5.02,0.00,22.0,21.2,00.0,30.9,23.8,21.7,0000.0,0005.30,0006.24,0005.23
2023-01-11 22:19:00,,0822.2,5.00,0.00,22.1,22.2,00.0,30.9,24.0,21.6,0000.0,0005.28,0006.19,0005.21
2023-01-11 22:20:00,,0822.2,5.00,0.00,22.2,22.7,00.0,31.0,24.2,21.4,0000.0,0005.25,0006.12,0005.18
2023-01-11 22:21:00,,0822.2,4.98,0.00,22.3,22.3,00.0,31.0,24.2,21.3,0000.0,0005.22,0006.05,0005.16
2023-01-11 22:22:00,,0822.2,4.99,0.00,22.3,21.9,00.0,31.0,24.1,21.2,0000.0,0005.18,0005.97,0005.13
2023-01-11 22:23:00,,0822.3,5.00,0.00,22.2,21.5,00.0,31.0,24.0,21.2,0000.0,0005.15,0005.90,0005.10
2023-01-11 22:24:00,,0822.3,5.00,0.00,22.2,21.3,00.0,31.1,23.9,21.3,0000.0,0005.13,0005.83,0005.08
2023-01-11 22:25:00,,0822.4,5.00,0.00,22.2,21.1,00.0,31.1,23.9,21.4,0000.0,0005.14,0005.84,0005.09
2023-01-11 22:26:00,,0822.4,5.00,0.00,22.2,21.0,00.0,31.1,23.9,21.5,0000.0,0005.17,0005.95,0005.12
2023-01-11 22:27:00,,0822.3,5.01,0.00,22.2,20.9,00.0,31.1,23.9,21.5,0000.0,0005.21,0006.01,0005.16
2023-01-11 22:28:00,,0822.4,5.00,0.00,22.2,20.8,00.0,31.1,23.9,21.5,0000.0,0005.25,0006.10,0005.20
2023-01-11 22:29:00,,0822.4,5.01,0.00,22.2,20.8,00.0,31.1,23.9,21.5,0000.0,0005.29,0006.16,0005.25
2023-01-11 22:30:00,,0822.5,5.00,0.00,22.2,20.7,00.0,31.1,23.9,21.5,0000.0,0005.35,0006.26,0005.30
2023-01-11 22:31:00,,0822.6,5.00,0.00,22.2,20.7,00.0,31.1,23.8,21.5,0000.0,0005.41,0006.35,0005.37
2023-01-11 22:32:00,,0822.6,5.00,0.00,22.1,20.7,00.0,31.1,23.8,21.5,0000.0,0005.47,0006.45,0005.42
2023-01-11 22:33:00,,0822.6,5.01,0.00,22.1,20.6,00.0,31.1,23.8,21.5,0000.0,0005.54,0006.54,0005.50
2023-01-11 22:34:00,,0822.6,5.00,0.00,22.1,20.6,00.0,31.1,23.8,21.5,0000.0,0005.60,0006.63,0005.57
2023-01-11 22:35:00,,0822.5,5.00,0.00,22.1,20.6,00.0,31.1,23.8,21.5,0000.0,0005.66,0006.72,0005.63
2023-01-11 22:36:00,,0822.6,5.00,0.00,22.1,20.5,00.0,31.1,23.8,21.5,0000.0,0005.68,0006.77,0005.65
2023-01-11 22:37:00,,0822.6,5.00,0.00,22.1,20.5,00.0,31.0,23.7,21.5,0000.0,0005.68,0006.66,0005.65
2023-01-11 22:38:00,,0822.6,4.99,0.00,22.0,20.4,00.0,31.0,23.7,21.5,0000.0,0005.67,0006.61,0005.64
2023-01-11 22:39:00,,0822.6,5.00,0.00,22.0,20.4,00.0,31.0,23.7,21.5,0000.0,0005.68,0006.63,0005.66
2023-01-11 22:40:00,,0822.6,5.00,0.00,22.0,20.4,00.0,31.0,23.6,21.5,0000.0,0005.68,0006.64,0005.66
2023-01-11 22:41:00,,0822.7,5.00,0.00,22.0,20.3,00.0,31.0,23.6,21.5,0000.0,0005.66,0006.60,0005.64
2023-01-11 22:42:00,,0822.7,4.99,0.00,22.0,20.2,00.0,31.0,23.6,21.7,0000.0,0005.65,0006.61,0005.63
2023-01-11 22:43:00,,0822.8,5.00,0.00,21.9,20.3,00.0,31.0,23.6,21.6,0000.0,0005.64,0006.63,0005.61
2023-01-11 22:44:00,,0822.8,5.02,0.00,21.9,20.3,00.0,31.0,23.6,21.6,0000.0,0005.63,0006.68,0005.59
2023-01-11 22:45:00,,0822.8,5.00,0.00,21.9,20.3,00.0,30.9,23.6,21.6,0000.0,0005.60,0006.66,0005.56
2023-01-11 22:46:00,,0822.8,5.00,0.00,21.9,20.5,00.0,30.9,23.6,21.6,0000.0,0005.58,0006.65,0005.53
2023-01-11 22:47:00,,0822.8,5.01,0.00,22.0,21.4,00.0,30.9,23.8,21.5,0000.0,0005.58,0006.70,0005.51
2023-01-11 22:48:00,,0822.9,5.00,0.00,22.1,22.4,00.0,30.9,24.1,21.4,0000.0,0005.56,0006.71,0005.48
2023-01-11 22:49:00,,0823.0,4.99,0.00,22.2,22.6,00.0,30.9,24.2,21.2,0000.0,0005.54,0006.70,0005.46
2023-01-11 22:50:00,,0823.0,4.99,0.00,22.3,22.2,00.0,31.0,24.2,21.2,0000.0,0005.51,0006.63,0005.43
2023-01-11 22:51:00,,0823.0,5.00,0.00,22.3,21.8,00.0,31.0,24.1,21.2,0000.0,0005.51,0006.67,0005.42
2023-01-11 22:52:00,,0823.0,5.01,0.00,22.3,21.6,00.0,31.0,24.1,21.2,0000.0,0005.50,0006.67,0005.41
2023-01-11 22:53:00,,0823.1,5.00,0.00,22.3,21.4,00.0,31.1,24.0,21.2,0000.0,0005.49,0006.66,0005.40
2023-01-11 22:54:00,,0823.1,5.00,0.00,22.3,21.2,00.0,31.1,24.0,21.2,0000.0,0005.49,0006.63,0005.39
2023-01-11 22:55:00,,0823.2,4.99,0.00,22.3,21.1,00.0,31.1,24.0,21.2,0000.0,0005.46,0006.61,0005.37
2023-01-11 22:56:00,,0823.2,5.00,0.00,22.3,21.1,00.0,31.1,24.0,21.2,0000.0,0005.42,0006.54,0005.33
2023-01-11 22:57:00,,0823.2,5.00,0.00,22.2,21.0,00.0,31.1,24.0,21.2,0000.0,0005.39,0006.52,0005.29
2023-01-11 22:58:00,,0823.2,5.01,0.00,22.2,21.0,00.0,31.1,24.0,21.3,0000.0,0005.33,0006.37,0005.24
2023-01-11 22:59:00,,0823.2,5.01,0.00,22.2,20.9,00.0,31.1,24.0,21.2,0000.0,0005.28,0006.27,0005.21
